| time (UTC) | temp F | wind direction | speed MPH | gust MPH | rain 1hr in | rain 24hr in | rain mn in | humidity % | barometer mb |
| 20260506035052 | 68 | 187 | 8.0 | 14.0 | 0.00 | 0.04 | 0.04 | 54 | 1008.8 |
| 20260506034613 | 68 | 181 | 6.0 | 14.0 | 0.00 | 0.04 | 0.04 | 54 | 1008.8 |
| 20260506034054 | 68 | 204 | 7.0 | 14.0 | 0.00 | 0.04 | 0.04 | 53 | 1008.8 |
| 20260506033551 | 68 | 200 | 6.0 | 14.0 | 0.00 | 0.04 | 0.04 | 53 | 1008.7 |
| 20260506033054 | 68 | 194 | 7.0 | 14.0 | 0.00 | 0.04 | 0.04 | 52 | 1008.6 |
| 20260506032554 | 68 | 204 | 7.0 | 13.0 | 0.00 | 0.04 | 0.04 | 52 | 1008.7 |
| 20260506032053 | 69 | 216 | 7.0 | 13.0 | 0.00 | 0.04 | 0.04 | 51 | 1008.7 |
| 20260506031607 | 69 | 191 | 7.0 | 13.0 | 0.00 | 0.04 | 0.04 | 51 | 1008.7 |
| 20260506031052 | 69 | 184 | 6.0 | 14.0 | 0.00 | 0.04 | 0.04 | 51 | 1008.7 |
| 20260506030550 | 69 | 217 | 6.0 | 17.0 | 0.00 | 0.04 | 0.04 | 51 | 1008.6 |
| 20260506030053 | 69 | 160 | 6.0 | 17.0 | 0.00 | 0.04 | 0.04 | 50 | 1008.7 |
| 20260506025553 | 69 | 179 | 8.0 | 17.0 | 0.00 | 0.04 | 0.04 | 50 | 1008.6 |
| 20260506025051 | 69 | 203 | 6.0 | 16.0 | 0.00 | 0.04 | 0.04 | 50 | 1008.6 |
| 20260506024616 | 70 | 165 | 8.0 | 16.0 | 0.00 | 0.04 | 0.04 | 49 | 1008.7 |
| 20260506024051 | 70 | 205 | 5.0 | 17.0 | 0.00 | 0.04 | 0.04 | 49 | 1008.7 |
| 20260506023554 | 70 | 173 | 9.0 | 17.0 | 0.00 | 0.04 | 0.04 | 48 | 1008.8 |
| 20260506023100 | 70 | 187 | 8.0 | 16.0 | 0.00 | 0.04 | 0.04 | 48 | 1008.8 |
| 20260506022553 | 70 | 215 | 7.0 | 16.0 | 0.00 | 0.04 | 0.04 | 48 | 1008.8 |
| 20260506022051 | 70 | 195 | 6.0 | 14.0 | 0.00 | 0.04 | 0.04 | 48 | 1008.8 |
| 20260506021559 | 71 | 188 | 7.0 | 16.0 | 0.00 | 0.04 | 0.04 | 47 | 1008.8 |
| 20260506021054 | 71 | 204 | 5.0 | 16.0 | 0.00 | 0.04 | 0.04 | 47 | 1008.7 |
| 20260506020554 | 71 | 205 | 6.0 | 17.0 | 0.00 | 0.04 | 0.04 | 46 | 1008.7 |
| 20260506015551 | 72 | 201 | 9.0 | 19.0 | 0.00 | 0.04 | 0.04 | 45 | 1008.6 |
| 20260506015051 | 72 | 166 | 10.0 | 19.0 | 0.00 | 0.04 | 0.04 | 45 | 1008.6 |
| 20260506014559 | 72 | 189 | 8.0 | 20.0 | 0.00 | 0.04 | 0.04 | 45 | 1008.5 |
| 20260506014055 | 72 | 168 | 11.0 | 20.0 | 0.00 | 0.04 | 0.04 | 44 | 1008.5 |
| 20260506013555 | 72 | 204 | 7.0 | 15.0 | 0.00 | 0.04 | 0.04 | 44 | 1008.4 |
| 20260506013110 | 72 | 206 | 7.0 | 15.0 | 0.00 | 0.04 | 0.04 | 43 | 1008.3 |
| 20260506012553 | 73 | 230 | 8.0 | 24.0 | 0.00 | 0.04 | 0.04 | 43 | 1008.2 |
| 20260506012050 | 73 | 178 | 9.0 | 27.0 | 0.00 | 0.04 | 0.04 | 42 | 1008.1 |
| 20260506011610 | 73 | 189 | 10.0 | 27.0 | 0.00 | 0.04 | 0.04 | 42 | 1008.0 |
| 20260506011051 | 72 | 202 | 8.0 | 16.0 | 0.00 | 0.04 | 0.04 | 43 | 1008.0 |
| 20260506010551 | 73 | 199 | 8.0 | 19.0 | 0.00 | 0.04 | 0.04 | 43 | 1008.0 |
| 20260506010058 | 73 | 155 | 8.0 | 19.0 | 0.00 | 0.04 | 0.04 | 42 | 1007.9 |
| 20260506005552 | 73 | 212 | 8.0 | 15.0 | 0.00 | 0.04 | 0.04 | 42 | 1007.8 |
| 20260506005053 | 73 | 202 | 8.0 | 13.0 | 0.00 | 0.04 | 0.04 | 41 | 1007.8 |
| 20260506004554 | 73 | 207 | 7.0 | 13.0 | 0.00 | 0.04 | 0.04 | 41 | 1007.7 |
| 20260506004051 | 73 | 189 | 5.0 | 13.0 | 0.00 | 0.04 | 0.04 | 41 | 1007.8 |
| 20260506003551 | 73 | 202 | 5.0 | 17.0 | 0.00 | 0.04 | 0.04 | 41 | 1007.7 |
| 20260506003053 | 74 | 169 | 7.0 | 17.0 | 0.00 | 0.04 | 0.04 | 41 | 1007.5 |
| 20260506002551 | 74 | 224 | 9.0 | 20.0 | 0.00 | 0.04 | 0.04 | 40 | 1007.5 |
| 20260506002051 | 74 | 169 | 8.0 | 20.0 | 0.00 | 0.04 | 0.04 | 40 | 1007.5 |
| 20260506001555 | 74 | 183 | 8.0 | 18.0 | 0.00 | 0.04 | 0.04 | 40 | 1007.4 |
| 20260506001051 | 74 | 170 | 10.0 | 21.0 | 0.00 | 0.04 | 0.04 | 40 | 1007.3 |
| 20260506000551 | 74 | 218 | 10.0 | 21.0 | 0.00 | 0.04 | 0.04 | 40 | 1007.3 |
| 20260506000052 | 74 | 210 | 8.0 | 19.0 | 0.00 | 0.04 | 0.04 | 40 | 1007.4 |
| 20260505235551 | 75 | 208 | 10.0 | 20.0 | 0.00 | 0.04 | 0.04 | 39 | 1007.3 |
| 20260505235052 | 75 | 168 | 9.0 | 20.0 | 0.00 | 0.04 | 0.04 | 39 | 1007.2 |
| 20260505234552 | 75 | 184 | 7.0 | 19.0 | 0.00 | 0.04 | 0.04 | 38 | 1007.2 |
| 20260505234051 | 75 | 216 | 8.0 | 21.0 | 0.00 | 0.04 | 0.04 | 37 | 1007.1 |
| 20260505233554 | 75 | 151 | 12.0 | 24.0 | 0.00 | 0.04 | 0.04 | 37 | 1007.2 |
| 20260505233055 | 75 | 173 | 10.0 | 24.0 | 0.00 | 0.04 | 0.04 | 37 | 1007.1 |
| 20260505232552 | 76 | 192 | 13.0 | 24.0 | 0.00 | 0.04 | 0.04 | 38 | 1007.3 |
| 20260505232058 | 76 | 216 | 8.0 | 21.0 | 0.00 | 0.04 | 0.04 | 38 | 1007.2 |
| 20260505231556 | 76 | 204 | 10.0 | 27.0 | 0.00 | 0.04 | 0.04 | 37 | 1007.2 |
| 20260505231054 | 76 | 218 | 11.0 | 27.0 | 0.00 | 0.04 | 0.04 | 37 | 1007.1 |
| 20260505230551 | 76 | 204 | 12.0 | 25.0 | 0.00 | 0.04 | 0.04 | 37 | 1007.0 |
| 20260505230104 | 76 | 201 | 11.0 | 26.0 | 0.00 | 0.04 | 0.04 | 37 | 1007.1 |
| 20260505225551 | 76 | 170 | 15.0 | 27.0 | 0.00 | 0.04 | 0.04 | 36 | 1007.0 |
| 20260505225052 | 77 | 211 | 13.0 | 28.0 | 0.00 | 0.04 | 0.04 | 37 | 1006.9 |
| 20260505224600 | 77 | 152 | 13.0 | 28.0 | 0.00 | 0.04 | 0.04 | 36 | 1006.8 |
| 20260505224051 | 77 | 207 | 12.0 | 26.0 | 0.00 | 0.04 | 0.04 | 37 | 1006.8 |
| 20260505223553 | 77 | 215 | 13.0 | 24.0 | 0.00 | 0.04 | 0.04 | 37 | 1006.8 |
| 20260505223108 | 77 | 171 | 11.0 | 27.0 | 0.00 | 0.04 | 0.04 | 37 | 1006.8 |
| 20260505222554 | 77 | 216 | 13.0 | 27.0 | 0.00 | 0.04 | 0.04 | 37 | 1006.7 |
| 20260505222054 | 77 | 189 | 12.0 | 25.0 | 0.00 | 0.04 | 0.04 | 37 | 1006.7 |
| 20260505221555 | 77 | 182 | 12.0 | 23.0 | 0.00 | 0.04 | 0.04 | 37 | 1006.6 |
| 20260505221056 | 77 | 191 | 9.0 | 21.0 | 0.00 | 0.04 | 0.04 | 38 | 1006.6 |
| 20260505220557 | 77 | 173 | 9.0 | 19.0 | 0.00 | 0.04 | 0.04 | 38 | 1006.6 |
| 20260505220108 | 77 | 171 | 11.0 | 25.0 | 0.00 | 0.04 | 0.04 | 38 | 1006.6 |
| 20260505215555 | 77 | 220 | 11.0 | 25.0 | 0.00 | 0.04 | 0.04 | 37 | 1006.7 |
| 20260505215051 | 77 | 179 | 11.0 | 33.0 | 0.00 | 0.04 | 0.04 | 37 | 1006.6 |
| 20260505214553 | 77 | 173 | 15.0 | 33.0 | 0.00 | 0.04 | 0.04 | 36 | 1006.6 |
| 20260505214051 | 78 | 162 | 14.0 | 27.0 | 0.00 | 0.04 | 0.04 | 36 | 1006.8 |
| 20260505213555 | 78 | 175 | 9.0 | 27.0 | 0.00 | 0.04 | 0.04 | 37 | 1006.7 |
| 20260505213100 | 78 | 183 | 14.0 | 27.0 | 0.00 | 0.04 | 0.04 | 36 | 1006.7 |
| 20260505212554 | 78 | 213 | 13.0 | 31.0 | 0.00 | 0.04 | 0.04 | 37 | 1006.7 |
| 20260505212051 | 78 | 219 | 12.0 | 31.0 | 0.00 | 0.04 | 0.04 | 36 | 1006.7 |
| 20260505211559 | 78 | 177 | 15.0 | 28.0 | 0.00 | 0.04 | 0.04 | 36 | 1006.8 |
| 20260505211051 | 78 | 164 | 10.0 | 28.0 | 0.00 | 0.04 | 0.04 | 36 | 1006.8 |
| 20260505210550 | 78 | 207 | 13.0 | 28.0 | 0.00 | 0.04 | 0.04 | 37 | 1006.7 |
| 20260505210058 | 78 | 152 | 14.0 | 26.0 | 0.00 | 0.04 | 0.04 | 36 | 1006.7 |
| 20260505205554 | 78 | 214 | 14.0 | 24.0 | 0.00 | 0.04 | 0.04 | 35 | 1006.6 |
| 20260505205052 | 78 | 189 | 10.0 | 26.0 | 0.00 | 0.04 | 0.04 | 35 | 1006.6 |
| 20260505204601 | 78 | 221 | 14.0 | 26.0 | 0.00 | 0.04 | 0.04 | 35 | 1006.6 |
| 20260505204051 | 78 | 208 | 12.0 | 26.0 | 0.00 | 0.04 | 0.04 | 37 | 1006.5 |
| 20260505203551 | 77 | 254 | 9.0 | 28.0 | 0.00 | 0.04 | 0.04 | 36 | 1006.5 |
| 20260505203100 | 77 | 208 | 16.0 | 28.0 | 0.00 | 0.04 | 0.04 | 35 | 1006.6 |
| 20260505202551 | 78 | 208 | 14.0 | 22.0 | 0.00 | 0.04 | 0.04 | 36 | 1006.4 |
| 20260505202052 | 78 | 209 | 12.0 | 25.0 | 0.00 | 0.04 | 0.04 | 35 | 1006.5 |
| 20260505201559 | 79 | 204 | 8.0 | 25.0 | 0.00 | 0.04 | 0.04 | 36 | 1006.5 |
| 20260505201051 | 78 | 182 | 13.0 | 26.0 | 0.00 | 0.04 | 0.04 | 38 | 1006.7 |
| 20260505200556 | 78 | 199 | 14.0 | 26.0 | 0.00 | 0.04 | 0.04 | 37 | 1006.7 |
| 20260505200054 | 78 | 211 | 12.0 | 26.0 | 0.00 | 0.04 | 0.04 | 37 | 1006.8 |
| 20260505195553 | 79 | 207 | 12.0 | 32.0 | 0.00 | 0.04 | 0.04 | 36 | 1006.8 |
| 20260505195052 | 79 | 162 | 10.0 | 32.0 | 0.00 | 0.04 | 0.04 | 36 | 1006.8 |
| 20260505194605 | 79 | 219 | 14.0 | 25.0 | 0.00 | 0.04 | 0.04 | 36 | 1006.7 |
| 20260505194055 | 79 | 249 | 8.0 | 23.0 | 0.00 | 0.04 | 0.04 | 37 | 1006.8 |
| 20260505193551 | 78 | 216 | 10.0 | 23.0 | 0.00 | 0.04 | 0.04 | 36 | 1006.8 |
| 20260505193056 | 78 | 169 | 10.0 | 25.0 | 0.00 | 0.04 | 0.04 | 36 | 1006.8 |
| 20260505192550 | 78 | 179 | 10.0 | 28.0 | 0.00 | 0.04 | 0.04 | 36 | 1006.8 |
| 20260505192051 | 78 | 199 | 17.0 | 28.0 | 0.00 | 0.04 | 0.04 | 37 | 1006.9 |
| 20260505191558 | 78 | 204 | 12.0 | 26.0 | 0.00 | 0.04 | 0.04 | 36 | 1006.9 |
| 20260505191051 | 79 | 225 | 12.0 | 22.0 | 0.00 | 0.04 | 0.04 | 36 | 1007.0 |
| 20260505190555 | 79 | 211 | 10.0 | 20.0 | 0.00 | 0.04 | 0.04 | 36 | 1006.9 |
| 20260505190053 | 79 | 214 | 13.0 | 21.0 | 0.00 | 0.04 | 0.04 | 36 | 1007.1 |
| 20260505185554 | 79 | 193 | 11.0 | 21.0 | 0.00 | 0.04 | 0.04 | 36 | 1007.3 |
| 20260505185051 | 79 | 191 | 7.0 | 16.0 | 0.00 | 0.04 | 0.04 | 36 | 1007.3 |
| 20260505184555 | 80 | 200 | 7.0 | 24.0 | 0.00 | 0.04 | 0.04 | 33 | 1007.3 |
| 20260505184051 | 80 | 207 | 13.0 | 24.0 | 0.00 | 0.04 | 0.04 | 33 | 1007.4 |
| 20260505183555 | 80 | 245 | 8.0 | 29.0 | 0.00 | 0.04 | 0.04 | 34 | 1007.6 |
| 20260505183101 | 80 | 258 | 10.0 | 29.0 | 0.00 | 0.04 | 0.04 | 33 | 1007.5 |
| 20260505182554 | 79 | 206 | 10.0 | 24.0 | 0.00 | 0.04 | 0.04 | 34 | 1007.6 |
| 20260505182051 | 79 | 245 | 12.0 | 24.0 | 0.00 | 0.04 | 0.04 | 35 | 1007.6 |
| 20260505181555 | 79 | 206 | 11.0 | 26.0 | 0.00 | 0.04 | 0.04 | 34 | 1007.6 |
| 20260505181051 | 79 | 189 | 12.0 | 26.0 | 0.00 | 0.04 | 0.04 | 36 | 1007.7 |
| 20260505180550 | 79 | 178 | 13.0 | 24.0 | 0.00 | 0.04 | 0.04 | 35 | 1007.7 |
| 20260505180056 | 79 | 189 | 8.0 | 19.0 | 0.00 | 0.04 | 0.04 | 36 | 1007.9 |
| 20260505175550 | 79 | 237 | 7.0 | 19.0 | 0.00 | 0.04 | 0.04 | 39 | 1008.0 |
| 20260505175054 | 78 | 206 | 11.0 | 21.0 | 0.00 | 0.04 | 0.04 | 37 | 1008.0 |
| 20260505174557 | 78 | 259 | 11.0 | 24.0 | 0.00 | 0.04 | 0.04 | 38 | 1007.9 |
| 20260505174054 | 79 | 214 | 10.0 | 24.0 | 0.00 | 0.04 | 0.04 | 36 | 1007.9 |
| 20260505173551 | 79 | 229 | 8.0 | 17.0 | 0.00 | 0.04 | 0.04 | 38 | 1008.0 |
| 20260505173056 | 78 | 273 | 7.0 | 17.0 | 0.00 | 0.04 | 0.04 | 41 | 1008.0 |
| 20260505172551 | 79 | 237 | 8.0 | 17.0 | 0.00 | 0.04 | 0.04 | 39 | 1008.2 |
| 20260505172051 | 78 | 204 | 8.0 | 16.0 | 0.00 | 0.04 | 0.04 | 41 | 1008.2 |
| 20260505171555 | 79 | 156 | 6.0 | 15.0 | 0.00 | 0.04 | 0.04 | 40 | 1008.2 |
| 20260505171053 | 79 | 219 | 4.0 | 15.0 | 0.00 | 0.04 | 0.04 | 40 | 1008.1 |
| 20260505170550 | 78 | 216 | 7.0 | 16.0 | 0.00 | 0.04 | 0.04 | 42 | 1008.2 |
| 20260505170057 | 78 | 233 | 4.0 | 16.0 | 0.00 | 0.04 | 0.04 | 43 | 1008.3 |
| 20260505165551 | 78 | 181 | 5.0 | 20.0 | 0.00 | 0.04 | 0.04 | 43 | 1008.5 |
| 20260505165051 | 77 | 206 | 8.0 | 20.0 | 0.00 | 0.04 | 0.04 | 44 | 1008.6 |
| 20260505164601 | 77 | 199 | 5.0 | 18.0 | 0.00 | 0.04 | 0.04 | 43 | 1008.6 |
| 20260505164051 | 77 | 193 | 8.0 | 18.0 | 0.00 | 0.04 | 0.04 | 42 | 1008.7 |
| 20260505163550 | 77 | 241 | 7.0 | 18.0 | 0.00 | 0.04 | 0.04 | 43 | 1008.8 |
| 20260505163100 | 77 | 166 | 7.0 | 18.0 | 0.00 | 0.04 | 0.04 | 43 | 1008.8 |
| 20260505162557 | 78 | 215 | 3.0 | 15.0 | 0.00 | 0.04 | 0.04 | 43 | 1008.9 |
| 20260505162051 | 77 | 204 | 4.0 | 16.0 | 0.00 | 0.04 | 0.04 | 42 | 1008.9 |
| 20260505161553 | 77 | 209 | 4.0 | 20.0 | 0.00 | 0.04 | 0.04 | 44 | 1008.9 |
| 20260505161053 | 77 | 229 | 7.0 | 20.0 | 0.00 | 0.04 | 0.04 | 42 | 1008.9 |
| 20260505160555 | 77 | 191 | 4.0 | 18.0 | 0.00 | 0.04 | 0.04 | 44 | 1008.9 |
| 20260505153109 | 75 | 229 | 3.0 | 15.0 | 0.00 | 0.04 | 0.04 | 49 | 1009.2 |
| 20260505152550 | 74 | 219 | 4.0 | 15.0 | 0.00 | 0.04 | 0.04 | 48 | 1009.3 |
| 20260505152052 | 73 | 206 | 7.0 | 13.0 | 0.00 | 0.04 | 0.04 | 51 | 1009.4 |
| 20260505151557 | 73 | 187 | 6.0 | 13.0 | 0.00 | 0.04 | 0.04 | 51 | 1009.5 |
| 20260505151052 | 73 | 216 | 4.0 | 16.0 | 0.00 | 0.04 | 0.04 | 51 | 1009.6 |
| 20260505150551 | 72 | 210 | 8.0 | 19.0 | 0.00 | 0.04 | 0.04 | 52 | 1009.6 |
| 20260505140551 | 67 | 206 | 5.0 | 16.0 | 0.00 | 0.04 | 0.04 | 62 | 1009.9 |
| 20260505140107 | 67 | 203 | 8.0 | 16.0 | 0.00 | 0.04 | 0.04 | 61 | 1010.0 |
| 20260505124552 | 62 | 219 | 4.0 | 9.0 | 0.00 | 0.04 | 0.04 | 71 | 1010.1 |
| 20260505124051 | 61 | 165 | 6.0 | 9.0 | 0.00 | 0.04 | 0.04 | 71 | 1010.1 |
| 20260505123550 | 61 | 169 | 3.0 | 11.0 | 0.00 | 0.04 | 0.04 | 73 | 1010.0 |
| 20260505123104 | 60 | 219 | 4.0 | 11.0 | 0.00 | 0.04 | 0.04 | 72 | 1010.1 |
| 20260505122554 | 60 | 219 | 5.0 | 11.0 | 0.00 | 0.04 | 0.04 | 73 | 1010.1 |
| 20260505122051 | 60 | 221 | 5.0 | 12.0 | 0.00 | 0.04 | 0.04 | 74 | 1010.1 |
| 20260505121600 | 59 | 207 | 8.0 | 12.0 | 0.00 | 0.04 | 0.04 | 73 | 1010.2 |
| 20260505121054 | 59 | 223 | 6.0 | 12.0 | 0.00 | 0.04 | 0.04 | 74 | 1010.1 |
| 20260505120551 | 59 | 189 | 3.0 | 14.0 | 0.00 | 0.04 | 0.04 | 76 | 1010.1 |
| 20260505115555 | 58 | 204 | 4.0 | 8.0 | 0.00 | 0.04 | 0.04 | 77 | 1009.9 |
| 20260505115051 | 58 | 166 | 2.0 | 6.0 | 0.00 | 0.04 | 0.04 | 78 | 1009.8 |
| 20260505114558 | 58 | 160 | 3.0 | 6.0 | 0.00 | 0.04 | 0.04 | 78 | 1009.7 |
| 20260505114052 | 57 | 174 | 3.0 | 6.0 | 0.00 | 0.04 | 0.04 | 78 | 1009.8 |
| 20260505113553 | 57 | 161 | 1.0 | 3.0 | 0.00 | 0.04 | 0.04 | 79 | 1009.7 |
| 20260505113100 | 57 | 177 | 0.0 | 4.0 | 0.00 | 0.04 | 0.04 | 80 | 1009.8 |
| 20260505112552 | 56 | 177 | 1.0 | 4.0 | 0.00 | 0.04 | 0.04 | 80 | 1009.7 |
| 20260505112054 | 56 | 192 | 1.0 | 6.0 | 0.00 | 0.04 | 0.04 | 82 | 1009.7 |
| 20260505111557 | 55 | 0 | 2.0 | 6.0 | 0.00 | 0.04 | 0.04 | 82 | 1009.7 |
| 20260505111054 | 55 | 166 | 2.0 | 6.0 | 0.00 | 0.04 | 0.04 | 82 | 1009.7 |
| 20260505110552 | 55 | 168 | 2.0 | 4.0 | 0.00 | 0.04 | 0.04 | 83 | 1009.7 |
| 20260505102050 | 53 | 0 | 1.0 | 8.0 | 0.01 | 0.04 | 0.04 | 82 | 1009.4 |
| 20260505101552 | 53 | 181 | 5.0 | 8.0 | 0.01 | 0.04 | 0.04 | 82 | 1009.4 |
| 20260505101051 | 53 | 170 | 2.0 | 7.0 | 0.02 | 0.04 | 0.04 | 82 | 1009.2 |
| 20260505100552 | 54 | 176 | 3.0 | 8.0 | 0.03 | 0.04 | 0.04 | 82 | 1009.1 |
| 20260505100055 | 54 | 205 | 5.0 | 8.0 | 0.03 | 0.04 | 0.04 | 81 | 1009.1 |
| 20260505095555 | 54 | 173 | 4.0 | 9.0 | 0.03 | 0.04 | 0.04 | 81 | 1009.0 |
| 20260505095054 | 54 | 208 | 5.0 | 11.0 | 0.04 | 0.04 | 0.04 | 82 | 1009.1 |
| 20260505094558 | 54 | 187 | 5.0 | 11.0 | 0.04 | 0.04 | 0.04 | 83 | 1009.0 |
| 20260505094051 | 54 | 176 | 6.0 | 11.0 | 0.04 | 0.04 | 0.04 | 83 | 1009.0 |
| 20260505093551 | 54 | 172 | 6.0 | 11.0 | 0.04 | 0.04 | 0.04 | 83 | 1009.1 |
| 20260505093051 | 54 | 183 | 1.0 | 3.0 | 0.03 | 0.03 | 0.03 | 81 | 1009.1 |
| 20260505092551 | 54 | 360 | 1.0 | 4.0 | 0.03 | 0.03 | 0.03 | 80 | 1008.8 |
| 20260505092050 | 55 | 6 | 2.0 | 4.0 | 0.03 | 0.03 | 0.03 | 79 | 1009.1 |
| 20260505091557 | 55 | 10 | 2.0 | 3.0 | 0.03 | 0.03 | 0.03 | 77 | 1009.4 |
| 20260505091050 | 55 | 317 | 1.0 | 4.0 | 0.02 | 0.02 | 0.02 | 76 | 1009.7 |
| 20260505090550 | 56 | 294 | 2.0 | 7.0 | 0.01 | 0.01 | 0.01 | 76 | 1009.8 |
| 20260505090059 | 56 | 272 | 0.0 | 10.0 | 0.01 | 0.01 | 0.01 | 74 | 1009.6 |
| 20260505085551 | 56 | 299 | 3.0 | 10.0 | 0.01 | 0.01 | 0.01 | 71 | 1009.6 |
| 20260505085051 | 56 | 241 | 1.0 | 4.0 | 0.00 | 0.00 | 0.00 | 68 | 1009.6 |
| 20260505084554 | 56 | 243 | 1.0 | 3.0 | 0.00 | 0.00 | 0.00 | 65 | 1009.7 |
| 20260505084054 | 56 | 0 | 1.0 | 2.0 | 0.00 | 0.00 | 0.00 | 65 | 1009.7 |
| 20260505083550 | 56 | 299 | 0.0 | 2.0 | 0.00 | 0.00 | 0.00 | 64 | 1009.6 |
| 20260505083057 | 57 | 0 | 0.0 | 2.0 | 0.00 | 0.00 | 0.00 | 63 | 1009.3 |
| 20260505082553 | 57 | 202 | 0.0 | 2.0 | 0.00 | 0.00 | 0.00 | 63 | 1009.3 |
| 20260505082051 | 57 | 202 | 1.0 | 2.0 | 0.00 | 0.00 | 0.00 | 62 | 1009.3 |
| 20260505081602 | 57 | 0 | 1.0 | 2.0 | 0.00 | 0.00 | 0.00 | 61 | 1009.1 |
| 20260505081051 | 57 | 202 | 0.0 | 1.0 | 0.00 | 0.00 | 0.00 | 61 | 1008.9 |
| 20260505080551 | 57 | 0 | 0.0 | 2.0 | 0.00 | 0.00 | 0.00 | 61 | 1008.9 |
| 20260505080055 | 57 | 0 | 1.0 | 4.0 | 0.00 | 0.00 | 0.00 | 61 | 1008.9 |
| 20260505075553 | 57 | 202 | 1.0 | 4.0 | 0.00 | 0.00 | 0.00 | 61 | 1008.8 |
| 20260505075052 | 57 | 202 | 1.0 | 3.0 | 0.00 | 0.00 | 0.00 | 61 | 1008.9 |
| 20260505074610 | 57 | 211 | 1.0 | 3.0 | 0.00 | 0.00 | 0.00 | 60 | 1008.8 |
| 20260505074051 | 58 | 211 | 0.0 | 2.0 | 0.00 | 0.00 | 0.00 | 60 | 1008.9 |
| 20260505073552 | 58 | 211 | 0.0 | 3.0 | 0.00 | 0.00 | 0.00 | 60 | 1008.9 |
| 20260505073100 | 58 | 211 | 1.0 | 3.0 | 0.00 | 0.00 | 0.00 | 60 | 1008.9 |
| 20260505072551 | 58 | 204 | 1.0 | 3.0 | 0.00 | 0.00 | 0.00 | 59 | 1008.9 |
| 20260505072053 | 58 | 0 | 1.0 | 5.0 | 0.00 | 0.00 | 0.00 | 59 | 1008.9 |
| 20260505071557 | 58 | 198 | 2.0 | 5.0 | 0.00 | 0.00 | 0.00 | 59 | 1009.0 |
| 20260505071051 | 58 | 215 | 2.0 | 4.0 | 0.00 | 0.00 | 0.00 | 59 | 1008.9 |
| 20260505070550 | 58 | 215 | 1.0 | 3.0 | 0.00 | 0.00 | 0.00 | 58 | 1008.9 |
| 20260505070058 | 58 | 210 | 1.0 | 4.0 | 0.00 | 0.00 | 0.00 | 58 | 1008.9 |
| 20260505065554 | 58 | 210 | 1.0 | 4.0 | 0.00 | 0.00 | 0.00 | 58 | 1008.9 |
| 20260505065050 | 58 | 195 | 1.0 | 3.0 | 0.00 | 0.00 | 0.00 | 58 | 1008.9 |
| 20260505064604 | 58 | 204 | 1.0 | 3.0 | 0.00 | 0.00 | 0.00 | 58 | 1008.9 |
| 20260505064051 | 58 | 224 | 1.0 | 3.0 | 0.00 | 0.00 | 0.00 | 58 | 1008.9 |
| 20260505063552 | 58 | 224 | 1.0 | 3.0 | 0.00 | 0.00 | 0.00 | 58 | 1009.1 |
| 20260505063058 | 58 | 0 | 0.0 | 3.0 | 0.00 | 0.00 | 0.00 | 57 | 1009.1 |
| 20260505062552 | 58 | 224 | 1.0 | 3.0 | 0.00 | 0.00 | 0.00 | 57 | 1009.1 |
| 20260505062051 | 58 | 199 | 0.0 | 3.0 | 0.00 | 0.00 | 0.00 | 56 | 1009.2 |
| 20260505061624 | 58 | 0 | 0.0 | 6.0 | 0.00 | 0.00 | 0.00 | 56 | 1009.2 |
| 20260505061051 | 58 | 0 | 1.0 | 6.0 | 0.00 | 0.00 | 0.00 | 56 | 1009.1 |
| 20260505060556 | 58 | 194 | 1.0 | 4.0 | 0.00 | 0.00 | 0.00 | 56 | 1009.1 |
| 20260505060056 | 58 | 210 | 1.0 | 4.0 | 0.00 | 0.00 | 0.00 | 56 | 1009.2 |
| 20260505055551 | 59 | 210 | 2.0 | 5.0 | 0.00 | 0.00 | 0.00 | 55 | 1009.1 |
| 20260505055052 | 59 | 192 | 1.0 | 5.0 | 0.00 | 0.00 | 0.00 | 55 | 1009.1 |
| 20260505054616 | 59 | 199 | 3.0 | 5.0 | 0.00 | 0.00 | 0.00 | 55 | 1009.1 |
| 20260505054051 | 59 | 175 | 2.0 | 5.0 | 0.00 | 0.00 | 0.00 | 55 | 1009.1 |
| 20260505053551 | 59 | 213 | 2.0 | 6.0 | 0.00 | 0.00 | 0.00 | 54 | 1009.2 |
| 20260505053057 | 59 | 210 | 2.0 | 6.0 | 0.00 | 0.00 | 0.00 | 54 | 1009.1 |
| 20260505052551 | 59 | 212 | 3.0 | 9.0 | 0.00 | 0.00 | 0.00 | 54 | 1009.1 |
| 20260505052052 | 59 | 200 | 4.0 | 9.0 | 0.00 | 0.00 | 0.00 | 54 | 1009.1 |
| 20260505051558 | 59 | 191 | 4.0 | 9.0 | 0.00 | 0.00 | 0.00 | 54 | 1009.0 |
| 20260505051050 | 59 | 206 | 5.0 | 10.0 | 0.00 | 0.00 | 0.00 | 53 | 1009.1 |
| 20260505050550 | 60 | 210 | 5.0 | 10.0 | 0.00 | 0.00 | 0.00 | 53 | 1009.0 |
| 20260505041555 | 60 | 195 | 5.0 | 9.0 | 0.00 | 0.00 | 0.00 | 50 | 1008.8 |
| 20260505041051 | 60 | 200 | 5.0 | 9.0 | 0.00 | 0.00 | 0.00 | 50 | 1008.8 |
| 20260505040553 | 60 | 202 | 5.0 | 9.0 | 0.00 | 0.00 | 0.00 | 50 | 1008.8 |
| 20260505040100 | 60 | 212 | 5.0 | 9.0 | 0.00 | 0.00 | 0.00 | 50 | 1008.8 |
| 20260505035550 | 60 | 182 | 5.0 | 9.0 | 0.00 | 0.00 | 0.00 | 50 | 1008.7 |